Time,TemperatureF,DewpointF,PressureIn,WindDirection,WindDirectionDegrees,WindSpeedMPH,WindSpeedGustMPH,Humidity,HourlyPrecipIn,Conditions,Clouds,dailyrainin,SoftwareType,DateUTC
2013-03-18 00:02:00,31.5,28.9,29.89,East,85,17.0,19.0,90,0.00,,,0.00,Wunderground v.1.15,2013-03-18 06:02:00,
2013-03-18 00:08:00,31.5,28.9,29.89,ESE,103,16.0,19.0,90,0.00,,,0.00,Wunderground v.1.15,2013-03-18 06:08:00,
2013-03-18 00:14:00,31.5,28.9,29.88,ESE,111,16.0,19.0,90,0.00,,,0.00,Wunderground v.1.15,2013-03-18 06:14:00,
2013-03-18 00:19:00,31.5,28.9,29.88,East,96,16.0,22.0,90,0.00,,,0.00,Wunderground v.1.15,2013-03-18 06:19:00,
2013-03-18 00:25:00,31.4,28.8,29.87,East,97,17.0,19.0,90,0.00,,,0.00,Wunderground v.1.15,2013-03-18 06:25:00,
2013-03-18 00:31:00,31.4,28.8,29.87,East,86,17.0,17.0,90,0.00,,,0.00,Wunderground v.1.15,2013-03-18 06:31:00,
2013-03-18 00:37:00,31.4,28.8,29.86,ESE,103,17.0,20.0,90,0.00,,,0.00,Wunderground v.1.15,2013-03-18 06:37:00,
2013-03-18 00:42:00,31.3,29.0,29.86,ENE,72,17.0,18.0,91,0.00,,,0.00,Wunderground v.1.15,2013-03-18 06:42:00,
2013-03-18 00:47:00,31.3,29.0,29.86,East,81,17.0,21.0,91,0.00,,,0.00,Wunderground v.1.15,2013-03-18 06:47:00,
2013-03-18 00:53:00,31.2,28.9,29.87,East,96,16.0,18.0,91,0.00,,,0.00,Wunderground v.1.15,2013-03-18 06:53:00,
2013-03-18 00:59:00,31.2,28.9,29.87,East,96,16.0,18.0,91,0.00,,,0.00,Wunderground v.1.15,2013-03-18 06:59:00,
2013-03-18 01:04:00,31.1,28.8,29.86,East,89,17.0,20.0,91,0.00,,,0.00,Wunderground v.1.15,2013-03-18 07:04:00,
2013-03-18 01:09:00,31.2,28.9,29.86,East,96,18.0,20.0,91,0.00,,,0.00,Wunderground v.1.15,2013-03-18 07:09:00,
2013-03-18 01:15:00,31.1,28.8,29.85,East,97,18.0,24.0,91,0.00,,,0.00,Wunderground v.1.15,2013-03-18 07:15:00,
2013-03-18 01:20:00,31.1,28.8,29.84,East,93,18.0,19.0,91,0.00,,,0.00,Wunderground v.1.15,2013-03-18 07:20:00,
2013-03-18 01:25:00,31.1,28.8,29.84,East,92,17.0,19.0,91,0.00,,,0.00,Wunderground v.1.15,2013-03-18 07:25:00,
2013-03-18 01:31:00,31.1,29.0,29.83,East,85,17.0,23.0,92,0.00,,,0.00,Wunderground v.1.15,2013-03-18 07:31:00,
2013-03-18 01:36:00,31.0,28.7,29.83,ENE,76,18.0,23.0,91,0.00,,,0.00,Wunderground v.1.15,2013-03-18 07:36:00,
2013-03-18 01:41:00,31.0,28.9,29.82,East,82,18.0,19.0,92,0.00,,,0.00,Wunderground v.1.15,2013-03-18 07:41:00,
2013-03-18 01:46:00,31.0,28.9,29.82,East,100,17.0,21.0,92,0.00,,,0.00,Wunderground v.1.15,2013-03-18 07:46:00,
2013-03-18 01:52:00,31.0,28.7,29.82,ESE,103,17.0,19.0,91,0.00,,,0.00,Wunderground v.1.15,2013-03-18 07:52:00,
2013-03-18 01:57:00,30.9,28.6,29.81,East,86,17.0,20.0,91,0.00,,,0.00,Wunderground v.1.15,2013-03-18 07:57:00,
2013-03-18 02:03:00,30.9,28.6,29.81,East,90,17.0,24.0,91,0.00,,,0.00,Wunderground v.1.15,2013-03-18 08:03:00,
2013-03-18 02:09:00,30.9,28.6,29.80,East,79,18.0,24.0,91,0.00,,,0.00,Wunderground v.1.15,2013-03-18 08:09:00,
2013-03-18 02:14:00,30.9,28.6,29.79,ENE,78,18.0,19.0,91,0.00,,,0.00,Wunderground v.1.15,2013-03-18 08:14:00,
2013-03-18 02:20:00,30.9,28.6,29.80,East,96,18.0,22.0,91,0.00,,,0.00,Wunderground v.1.15,2013-03-18 08:20:00,
2013-03-18 02:26:00,30.9,28.6,29.79,ENE,74,16.0,22.0,91,0.00,,,0.00,Wunderground v.1.15,2013-03-18 08:26:00,
2013-03-18 02:32:00,30.8,28.5,29.79,East,85,16.0,21.0,91,0.00,,,0.00,Wunderground v.1.15,2013-03-18 08:32:00,
2013-03-18 02:37:00,30.8,28.5,29.79,East,90,17.0,21.0,91,0.00,,,0.00,Wunderground v.1.15,2013-03-18 08:37:00,
2013-03-18 02:42:00,30.8,28.5,29.78,ENE,75,17.0,17.0,91,0.00,,,0.00,Wunderground v.1.15,2013-03-18 08:42:00,
2013-03-18 02:47:00,30.8,28.5,29.78,ENE,74,15.0,20.0,91,0.00,,,0.00,Wunderground v.1.15,2013-03-18 08:47:00,
2013-03-18 02:52:00,30.7,28.4,29.77,East,92,15.0,17.0,91,0.00,,,0.00,Wunderground v.1.15,2013-03-18 08:52:00,
2013-03-18 02:57:00,30.7,28.4,29.77,ENE,76,16.0,19.0,91,0.00,,,0.00,Wunderground v.1.15,2013-03-18 08:57:00,
2013-03-18 03:02:00,30.7,28.4,29.76,ENE,69,16.0,16.0,91,0.00,,,0.00,Wunderground v.1.15,2013-03-18 09:02:00,
2013-03-18 03:08:00,30.7,28.7,29.76,East,82,15.0,16.0,92,0.00,,,0.00,Wunderground v.1.15,2013-03-18 09:08:00,
2013-03-18 03:14:00,30.7,28.7,29.76,ESE,111,15.0,21.0,92,0.00,,,0.00,Wunderground v.1.15,2013-03-18 09:14:00,
2013-03-18 03:19:00,30.7,28.4,29.75,ENE,78,15.0,21.0,91,0.00,,,0.00,Wunderground v.1.15,2013-03-18 09:19:00,
2013-03-18 03:25:00,30.7,28.7,29.75,East,100,14.0,16.0,92,0.00,,,0.00,Wunderground v.1.15,2013-03-18 09:25:00,
2013-03-18 03:31:00,30.7,28.7,29.75,East,88,14.0,18.0,92,0.00,,,0.00,Wunderground v.1.15,2013-03-18 09:31:00,
2013-03-18 03:37:00,30.7,28.7,29.75,East,82,14.0,18.0,92,0.00,,,0.00,Wunderground v.1.15,2013-03-18 09:37:00,
2013-03-18 03:42:00,30.7,28.7,29.75,ENE,74,14.0,14.0,92,0.00,,,0.00,Wunderground v.1.15,2013-03-18 09:42:00,
2013-03-18 03:47:00,30.6,28.6,29.75,East,97,14.0,16.0,92,0.00,,,0.00,Wunderground v.1.15,2013-03-18 09:47:00,
2013-03-18 03:52:00,30.6,28.6,29.75,ENE,66,13.0,14.0,92,0.00,,,0.00,Wunderground v.1.15,2013-03-18 09:52:00,
2013-03-18 03:58:00,30.5,28.5,29.75,East,89,12.0,14.0,92,0.00,,,0.00,Wunderground v.1.15,2013-03-18 09:58:00,
2013-03-18 04:04:00,30.5,28.5,29.75,ENE,76,12.0,15.0,92,0.00,,,0.00,Wunderground v.1.15,2013-03-18 10:04:00,
2013-03-18 04:09:00,30.5,28.5,29.76,ENE,70,12.0,15.0,92,0.00,,,0.00,Wunderground v.1.15,2013-03-18 10:09:00,
2013-03-18 04:14:00,30.5,28.5,29.75,ENE,71,11.0,16.0,92,0.00,,,0.00,Wunderground v.1.15,2013-03-18 10:14:00,
2013-03-18 04:19:00,30.5,28.5,29.75,East,95,12.0,16.0,92,0.00,,,0.00,Wunderground v.1.15,2013-03-18 10:19:00,
2013-03-18 04:24:00,30.5,28.5,29.75,ENE,69,12.0,13.0,92,0.00,,,0.00,Wunderground v.1.15,2013-03-18 10:24:00,
2013-03-18 04:30:00,30.5,28.5,29.74,ENE,62,12.0,13.0,92,0.00,,,0.00,Wunderground v.1.15,2013-03-18 10:30:00,
2013-03-18 04:36:00,30.5,28.7,29.74,ENE,66,12.0,14.0,93,0.00,,,0.00,Wunderground v.1.15,2013-03-18 10:36:00,
2013-03-18 04:42:00,30.5,28.7,29.74,ENE,70,13.0,17.0,93,0.00,,,0.00,Wunderground v.1.15,2013-03-18 10:42:00,
2013-03-18 04:47:00,30.5,28.7,29.74,ENE,66,14.0,17.0,93,0.00,,,0.00,Wunderground v.1.15,2013-03-18 10:47:00,
2013-03-18 04:52:00,30.4,28.6,29.73,ENE,62,14.0,15.0,93,0.00,,,0.00,Wunderground v.1.15,2013-03-18 10:52:00,
2013-03-18 04:58:00,30.4,28.6,29.73,ENE,64,13.0,15.0,93,0.00,,,0.00,Wunderground v.1.15,2013-03-18 10:58:00,
2013-03-18 05:04:00,30.4,28.6,29.73,ENE,61,13.0,16.0,93,0.00,,,0.00,Wunderground v.1.15,2013-03-18 11:04:00,
2013-03-18 05:09:00,30.4,28.6,29.73,ENE,74,13.0,16.0,93,0.00,,,0.00,Wunderground v.1.15,2013-03-18 11:09:00,
2013-03-18 05:14:00,30.4,28.6,29.73,ENE,76,12.0,13.0,93,0.00,,,0.00,Wunderground v.1.15,2013-03-18 11:14:00,
2013-03-18 05:20:00,30.3,28.5,29.74,East,88,12.0,13.0,93,0.00,,,0.00,Wunderground v.1.15,2013-03-18 11:20:00,
2013-03-18 05:26:00,30.2,28.4,29.74,ENE,65,12.0,14.0,93,0.00,,,0.00,Wunderground v.1.15,2013-03-18 11:26:00,
2013-03-18 05:32:00,30.2,28.4,29.73,ENE,64,12.0,12.0,93,0.00,,,0.00,Wunderground v.1.15,2013-03-18 11:32:00,
2013-03-18 05:37:00,30.3,28.5,29.73,ENE,76,13.0,13.0,93,0.00,,,0.00,Wunderground v.1.15,2013-03-18 11:37:00,
2013-03-18 05:43:00,30.3,28.5,29.73,ENE,71,12.0,12.0,93,0.00,,,0.00,Wunderground v.1.15,2013-03-18 11:43:00,
2013-03-18 05:49:00,30.3,28.5,29.72,ENE,72,11.0,12.0,93,0.00,,,0.00,Wunderground v.1.15,2013-03-18 11:49:00,
2013-03-18 05:55:00,30.3,28.5,29.71,ENE,72,11.0,13.0,93,0.00,,,0.00,Wunderground v.1.15,2013-03-18 11:55:00,
2013-03-18 06:00:00,30.3,28.5,29.70,ENE,71,12.0,12.0,93,0.00,,,0.00,Wunderground v.1.15,2013-03-18 12:00:00,
2013-03-18 06:06:00,30.4,28.6,29.70,ENE,64,12.0,15.0,93,0.00,,,0.00,Wunderground v.1.15,2013-03-18 12:06:00,
2013-03-18 06:11:00,30.3,28.5,29.70,East,86,13.0,14.0,93,0.00,,,0.00,Wunderground v.1.15,2013-03-18 12:11:00,
2013-03-18 06:16:00,30.3,28.5,29.70,East,88,13.0,16.0,93,0.00,,,0.00,Wunderground v.1.15,2013-03-18 12:16:00,
2013-03-18 06:22:00,30.3,28.5,29.69,ENE,76,13.0,13.0,93,0.00,,,0.00,Wunderground v.1.15,2013-03-18 12:22:00,
2013-03-18 06:27:00,30.3,28.8,29.70,East,81,13.0,17.0,94,0.00,,,0.00,Wunderground v.1.15,2013-03-18 12:27:00,
2013-03-18 06:33:00,30.3,28.8,29.69,ENE,75,12.0,13.0,94,0.00,,,0.00,Wunderground v.1.15,2013-03-18 12:33:00,
2013-03-18 06:38:00,30.4,28.9,29.69,NE,52,12.0,13.0,94,0.00,,,0.00,Wunderground v.1.15,2013-03-18 12:38:00,
2013-03-18 06:44:00,30.4,28.6,29.70,East,90,12.0,14.0,93,0.00,,,0.00,Wunderground v.1.15,2013-03-18 12:44:00,
2013-03-18 06:50:00,30.4,28.9,29.69,ENE,71,11.0,11.0,94,0.00,,,0.00,Wunderground v.1.15,2013-03-18 12:50:00,
2013-03-18 06:55:00,30.4,28.6,29.70,ENE,72,10.0,12.0,93,0.00,,,0.00,Wunderground v.1.15,2013-03-18 12:55:00,
2013-03-18 07:00:00,30.4,28.6,29.70,East,82,10.0,11.0,93,0.00,,,0.00,Wunderground v.1.15,2013-03-18 13:00:00,
2013-03-18 07:06:00,30.4,28.6,29.70,East,85,9.0,11.0,93,0.00,,,0.00,Wunderground v.1.15,2013-03-18 13:06:00,
2013-03-18 07:12:00,30.5,28.7,29.71,ENE,70,8.0,9.0,93,0.00,,,0.00,Wunderground v.1.15,2013-03-18 13:12:00,
2013-03-18 07:17:00,30.5,28.7,29.71,ENE,75,7.0,9.0,93,0.00,,,0.00,Wunderground v.1.15,2013-03-18 13:17:00,
2013-03-18 07:23:00,30.6,28.8,29.71,East,83,7.0,9.0,93,0.00,,,0.00,Wunderground v.1.15,2013-03-18 13:23:00,
2013-03-18 07:29:00,30.6,28.8,29.71,ENE,78,7.0,9.0,93,0.00,,,0.00,Wunderground v.1.15,2013-03-18 13:29:00,
2013-03-18 07:34:00,30.6,28.8,29.71,East,79,7.0,10.0,93,0.00,,,0.00,Wunderground v.1.15,2013-03-18 13:34:00,
2013-03-18 07:39:00,30.7,28.9,29.70,ENE,78,7.0,10.0,93,0.00,,,0.00,Wunderground v.1.15,2013-03-18 13:39:00,
2013-03-18 07:45:00,30.7,28.9,29.69,East,83,7.0,10.0,93,0.00,,,0.00,Wunderground v.1.15,2013-03-18 13:45:00,
2013-03-18 07:50:00,30.7,29.2,29.68,ENE,65,9.0,9.0,94,0.00,,,0.00,Wunderground v.1.15,2013-03-18 13:50:00,
2013-03-18 07:56:00,30.7,28.9,29.68,ENE,65,9.0,11.0,93,0.00,,,0.00,Wunderground v.1.15,2013-03-18 13:56:00,
2013-03-18 08:02:00,30.8,29.3,29.68,East,89,9.0,10.0,94,0.00,,,0.00,Wunderground v.1.15,2013-03-18 14:02:00,
2013-03-18 08:07:00,30.8,29.3,29.68,ENE,72,8.0,10.0,94,0.00,,,0.00,Wunderground v.1.15,2013-03-18 14:07:00,
2013-03-18 08:13:00,30.8,29.3,29.68,ENE,57,8.0,8.0,94,0.00,,,0.00,Wunderground v.1.15,2013-03-18 14:13:00,
2013-03-18 08:19:00,30.8,29.3,29.68,NE,47,7.0,8.0,94,0.00,,,0.00,Wunderground v.1.15,2013-03-18 14:19:00,
2013-03-18 08:25:00,30.8,29.3,29.68,ENE,69,7.0,9.0,94,0.00,,,0.00,Wunderground v.1.15,2013-03-18 14:25:00,
2013-03-18 08:30:00,30.8,29.3,29.68,ENE,65,7.0,7.0,94,0.00,,,0.00,Wunderground v.1.15,2013-03-18 14:30:00,
2013-03-18 08:36:00,30.8,29.3,29.67,NE,55,6.0,7.0,94,0.00,,,0.00,Wunderground v.1.15,2013-03-18 14:36:00,
2013-03-18 08:41:00,30.9,29.4,29.67,NE,41,7.0,8.0,94,0.00,,,0.00,Wunderground v.1.15,2013-03-18 14:41:00,
2013-03-18 08:46:00,30.8,29.3,29.67,ENE,59,7.0,8.0,94,0.00,,,0.00,Wunderground v.1.15,2013-03-18 14:46:00,
2013-03-18 08:52:00,30.8,29.3,29.68,ENE,71,7.0,7.0,94,0.00,,,0.00,Wunderground v.1.15,2013-03-18 14:52:00,
2013-03-18 08:58:00,30.9,29.4,29.69,ENE,68,6.0,7.0,94,0.00,,,0.00,Wunderground v.1.15,2013-03-18 14:58:00,
2013-03-18 09:04:00,30.9,29.4,29.69,NE,51,4.0,5.0,94,0.00,,,0.00,Wunderground v.1.15,2013-03-18 15:04:00,
2013-03-18 09:10:00,30.9,29.4,29.68,ENE,65,4.0,7.0,94,0.00,,,0.00,Wunderground v.1.15,2013-03-18 15:10:00,
2013-03-18 09:15:00,30.9,29.4,29.68,ENE,57,5.0,7.0,94,0.00,,,0.00,Wunderground v.1.15,2013-03-18 15:15:00,
2013-03-18 09:21:00,31.0,29.5,29.68,ENE,78,4.0,5.0,94,0.00,,,0.00,Wunderground v.1.15,2013-03-18 15:21:00,
2013-03-18 09:27:00,31.0,29.5,29.68,NE,51,3.0,5.0,94,0.00,,,0.00,Wunderground v.1.15,2013-03-18 15:27:00,
2013-03-18 09:33:00,30.9,29.4,29.68,NE,51,3.0,4.0,94,0.00,,,0.00,Wunderground v.1.15,2013-03-18 15:33:00,
2013-03-18 09:39:00,31.0,29.5,29.68,NE,50,4.0,5.0,94,0.00,,,0.00,Wunderground v.1.15,2013-03-18 15:39:00,
2013-03-18 09:44:00,31.1,29.6,29.67,ENE,69,4.0,4.0,94,0.00,,,0.00,Wunderground v.1.15,2013-03-18 15:44:00,
2013-03-18 09:50:00,31.0,29.5,29.67,NE,44,4.0,4.0,94,0.00,,,0.00,Wunderground v.1.15,2013-03-18 15:50:00,
2013-03-18 09:57:00,31.1,29.6,29.67,NE,45,3.0,4.0,94,0.00,,,0.00,Wunderground v.1.15,2013-03-18 15:57:00,
2013-03-18 10:02:00,31.1,29.6,29.67,NE,48,3.0,4.0,94,0.00,,,0.00,Wunderground v.1.15,2013-03-18 16:02:00,
2013-03-18 10:08:00,31.2,29.7,29.66,NE,45,3.0,4.0,94,0.00,,,0.00,Wunderground v.1.15,2013-03-18 16:08:00,
2013-03-18 10:14:00,31.3,29.8,29.67,NE,47,2.0,3.0,94,0.00,,,0.00,Wunderground v.1.15,2013-03-18 16:14:00,
2013-03-18 10:19:00,31.4,29.9,29.68,WNW,303,1.0,3.0,94,0.00,,,0.00,Wunderground v.1.15,2013-03-18 16:19:00,
2013-03-18 10:25:00,31.4,29.9,29.68,WNW,284,1.0,1.0,94,0.00,,,0.00,Wunderground v.1.15,2013-03-18 16:25:00,
2013-03-18 10:30:00,31.4,29.9,29.69,WNW,283,1.0,2.0,94,0.00,,,0.00,Wunderground v.1.15,2013-03-18 16:30:00,
2013-03-18 10:36:00,31.5,30.0,29.69,West,274,2.0,3.0,94,0.00,,,0.00,Wunderground v.1.15,2013-03-18 16:36:00,
2013-03-18 10:41:00,31.4,29.9,29.68,West,274,2.0,2.0,94,0.00,,,0.00,Wunderground v.1.15,2013-03-18 16:41:00,
2013-03-18 10:46:00,31.4,29.9,29.68,West,271,1.0,2.0,94,0.00,,,0.00,Wunderground v.1.15,2013-03-18 16:46:00,
2013-03-18 10:51:00,31.4,29.9,29.68,WSW,255,1.0,1.0,94,0.00,,,0.00,Wunderground v.1.15,2013-03-18 16:51:00,
2013-03-18 10:56:00,31.6,30.1,29.67,WSW,249,1.0,1.0,94,0.00,,,0.00,Wunderground v.1.15,2013-03-18 16:56:00,
2013-03-18 11:02:00,31.7,30.2,29.67,WSW,255,0.0,1.0,94,0.00,,,0.00,Wunderground v.1.15,2013-03-18 17:02:00,
2013-03-18 11:08:00,31.6,30.1,29.67,West,280,1.0,2.0,94,0.00,,,0.00,Wunderground v.1.15,2013-03-18 17:08:00,
2013-03-18 11:14:00,31.7,30.2,29.67,West,264,2.0,3.0,94,0.00,,,0.00,Wunderground v.1.15,2013-03-18 17:14:00,
2013-03-18 11:19:00,31.6,30.1,29.67,West,271,3.0,4.0,94,0.00,,,0.00,Wunderground v.1.15,2013-03-18 17:19:00,
2013-03-18 11:24:00,31.7,30.2,29.67,West,264,3.0,4.0,94,0.00,,,0.00,Wunderground v.1.15,2013-03-18 17:24:00,
2013-03-18 11:30:00,31.9,30.4,29.67,West,280,3.0,4.0,94,0.00,,,0.00,Wunderground v.1.15,2013-03-18 17:30:00,
2013-03-18 11:36:00,32.0,30.5,29.67,WSW,254,4.0,5.0,94,0.00,,,0.00,Wunderground v.1.15,2013-03-18 17:36:00,
2013-03-18 11:42:00,32.1,30.6,29.66,West,280,4.0,7.0,94,0.00,,,0.00,Wunderground v.1.15,2013-03-18 17:42:00,
2013-03-18 11:47:00,32.1,30.6,29.66,WNW,289,5.0,7.0,94,0.00,,,0.00,Wunderground v.1.15,2013-03-18 17:47:00,
2013-03-18 11:52:00,32.1,30.6,29.65,WSW,251,5.0,7.0,94,0.00,,,0.00,Wunderground v.1.15,2013-03-18 17:52:00,
2013-03-18 11:58:00,32.3,30.8,29.65,WSW,250,5.0,7.0,94,0.00,,,0.01,Wunderground v.1.15,2013-03-18 17:58:00,
2013-03-18 12:03:00,32.7,31.2,29.66,West,271,5.0,7.0,94,0.00,,,0.01,Wunderground v.1.15,2013-03-18 18:03:00,
2013-03-18 12:08:00,33.0,31.5,29.66,WSW,250,6.0,12.0,94,0.00,,,0.01,Wunderground v.1.15,2013-03-18 18:08:00,
2013-03-18 12:14:00,33.0,31.5,29.67,WSW,249,9.0,11.0,94,0.00,,,0.01,Wunderground v.1.15,2013-03-18 18:14:00,
2013-03-18 12:19:00,33.2,31.7,29.66,West,265,10.0,11.0,94,0.00,,,0.01,Wunderground v.1.15,2013-03-18 18:19:00,
2013-03-18 12:25:00,33.4,31.9,29.66,West,263,10.0,13.0,94,0.00,,,0.01,Wunderground v.1.15,2013-03-18 18:25:00,
2013-03-18 12:30:00,33.6,32.1,29.67,West,266,10.0,12.0,94,0.00,,,0.01,Wunderground v.1.15,2013-03-18 18:30:00,
2013-03-18 12:36:00,33.7,31.9,29.67,WNW,295,11.0,14.0,93,0.00,,,0.01,Wunderground v.1.15,2013-03-18 18:36:00,
2013-03-18 12:42:00,33.8,32.0,29.67,WSW,244,12.0,13.0,93,0.00,,,0.01,Wunderground v.1.15,2013-03-18 18:42:00,
2013-03-18 12:47:00,33.9,32.1,29.68,WSW,253,13.0,16.0,93,0.00,,,0.01,Wunderground v.1.15,2013-03-18 18:47:00,
2013-03-18 12:52:00,34.0,32.2,29.68,West,264,14.0,18.0,93,0.00,,,0.02,Wunderground v.1.15,2013-03-18 18:52:00,
2013-03-18 12:57:00,34.2,32.4,29.68,WSW,254,14.0,18.0,93,0.00,,,0.02,Wunderground v.1.15,2013-03-18 18:57:00,
2013-03-18 13:03:00,34.2,32.1,29.68,WSW,256,15.0,20.0,92,0.00,,,0.02,Wunderground v.1.15,2013-03-18 19:03:00,
2013-03-18 13:09:00,34.3,32.5,29.67,WNW,282,15.0,20.0,93,0.00,,,0.02,Wunderground v.1.15,2013-03-18 19:09:00,
2013-03-18 13:15:00,34.5,32.7,29.67,West,277,15.0,17.0,93,0.00,,,0.02,Wunderground v.1.15,2013-03-18 19:15:00,
2013-03-18 13:21:00,35.0,32.9,29.67,WSW,249,15.0,15.0,92,0.00,,,0.02,Wunderground v.1.15,2013-03-18 19:21:00,
2013-03-18 13:27:00,35.3,33.2,29.67,SW,232,16.0,21.0,92,0.00,,,0.02,Wunderground v.1.15,2013-03-18 19:27:00,
2013-03-18 13:33:00,35.5,33.4,29.66,WSW,250,16.0,21.0,92,0.00,,,0.02,Wunderground v.1.15,2013-03-18 19:33:00,
2013-03-18 13:38:00,35.9,33.8,29.66,West,268,17.0,21.0,92,0.00,,,0.02,Wunderground v.1.15,2013-03-18 19:38:00,
2013-03-18 13:43:00,36.1,34.0,29.66,West,276,16.0,23.0,92,0.00,,,0.02,Wunderground v.1.15,2013-03-18 19:43:00,
2013-03-18 13:48:00,36.2,33.8,29.66,West,267,17.0,23.0,91,0.00,,,0.02,Wunderground v.1.15,2013-03-18 19:48:00,
2013-03-18 13:53:00,36.5,34.4,29.66,WNW,286,19.0,23.0,92,0.00,,,0.02,Wunderground v.1.15,2013-03-18 19:53:00,
2013-03-18 13:58:00,36.7,34.6,29.66,West,267,19.0,25.0,92,0.00,,,0.02,Wunderground v.1.15,2013-03-18 19:58:00,
2013-03-18 14:04:00,37.1,35.0,29.66,West,280,19.0,23.0,92,0.00,,,0.02,Wunderground v.1.15,2013-03-18 20:04:00,
2013-03-18 14:10:00,37.0,34.6,29.66,WSW,254,20.0,25.0,91,0.00,,,0.02,Wunderground v.1.15,2013-03-18 20:10:00,
2013-03-18 14:16:00,37.1,34.7,29.66,West,275,20.0,25.0,91,0.00,,,0.02,Wunderground v.1.15,2013-03-18 20:16:00,
2013-03-18 14:22:00,37.3,34.6,29.66,WNW,285,21.0,29.0,90,0.00,,,0.02,Wunderground v.1.15,2013-03-18 20:22:00,
2013-03-18 14:27:00,37.6,35.2,29.66,West,280,21.0,29.0,91,0.00,,,0.02,Wunderground v.1.15,2013-03-18 20:27:00,
2013-03-18 14:33:00,37.8,35.1,29.66,WSW,247,18.0,27.0,90,0.00,,,0.02,Wunderground v.1.15,2013-03-18 20:33:00,
2013-03-18 14:39:00,37.7,34.8,29.67,West,268,22.0,31.0,89,0.00,,,0.02,Wunderground v.1.15,2013-03-18 20:39:00,
2013-03-18 14:44:00,37.7,35.0,29.67,West,268,24.0,26.0,90,0.00,,,0.02,Wunderground v.1.15,2013-03-18 20:44:00,
2013-03-18 14:50:00,37.7,35.0,29.67,WSW,256,23.0,25.0,90,0.00,,,0.02,Wunderground v.1.15,2013-03-18 20:50:00,
2013-03-18 14:56:00,37.7,35.0,29.67,West,277,25.0,32.0,90,0.00,,,0.02,Wunderground v.1.15,2013-03-18 20:56:00,
2013-03-18 15:02:00,37.7,35.3,29.67,WSW,256,23.0,24.0,91,0.00,,,0.02,Wunderground v.1.15,2013-03-18 21:02:00,
2013-03-18 15:07:00,37.6,34.9,29.67,West,278,22.0,27.0,90,0.00,,,0.02,Wunderground v.1.15,2013-03-18 21:07:00,
2013-03-18 15:13:00,37.7,34.8,29.67,WSW,253,21.0,21.0,89,0.00,,,0.02,Wunderground v.1.15,2013-03-18 21:13:00,
2013-03-18 15:19:00,37.6,34.7,29.68,WSW,239,21.0,22.0,89,0.00,,,0.02,Wunderground v.1.15,2013-03-18 21:19:00,
2013-03-18 15:25:00,37.5,34.6,29.68,WSW,249,21.0,26.0,89,0.00,,,0.02,Wunderground v.1.15,2013-03-18 21:25:00,
2013-03-18 15:30:00,37.3,34.6,29.68,West,278,21.0,22.0,90,0.00,,,0.02,Wunderground v.1.15,2013-03-18 21:30:00,
2013-03-18 15:35:00,37.3,34.9,29.68,West,280,18.0,22.0,91,0.00,,,0.02,Wunderground v.1.15,2013-03-18 21:35:00,
2013-03-18 15:41:00,37.3,34.6,29.69,West,263,16.0,18.0,90,0.00,,,0.02,Wunderground v.1.15,2013-03-18 21:41:00,
2013-03-18 15:47:00,37.5,34.8,29.69,West,271,16.0,19.0,90,0.00,,,0.02,Wunderground v.1.15,2013-03-18 21:47:00,
2013-03-18 15:53:00,37.5,34.6,29.69,WNW,293,14.0,21.0,89,0.00,,,0.02,Wunderground v.1.15,2013-03-18 21:53:00,
2013-03-18 15:58:00,37.5,34.3,29.69,West,261,16.0,26.0,88,0.00,,,0.02,Wunderground v.1.15,2013-03-18 21:58:00,
2013-03-18 16:04:00,37.6,34.4,29.69,West,268,19.0,25.0,88,0.00,,,0.02,Wunderground v.1.15,2013-03-18 22:04:00,
2013-03-18 16:09:00,37.7,34.5,29.69,West,268,20.0,25.0,88,0.00,,,0.02,Wunderground v.1.15,2013-03-18 22:09:00,
2013-03-18 16:14:00,37.7,34.2,29.70,West,267,21.0,25.0,87,0.00,,,0.02,Wunderground v.1.15,2013-03-18 22:14:00,
2013-03-18 16:20:00,37.2,34.0,29.70,WNW,301,22.0,27.0,88,0.00,,,0.02,Wunderground v.1.15,2013-03-18 22:20:00,
2013-03-18 16:25:00,36.8,33.3,29.70,WNW,289,23.0,30.0,87,0.00,,,0.02,Wunderground v.1.15,2013-03-18 22:25:00,
2013-03-18 16:30:00,36.8,33.6,29.71,West,275,21.0,22.0,88,0.00,,,0.02,Wunderground v.1.15,2013-03-18 22:30:00,
2013-03-18 16:36:00,36.9,33.1,29.71,WNW,282,20.0,26.0,86,0.00,,,0.02,Wunderground v.1.15,2013-03-18 22:36:00,
2013-03-18 16:41:00,36.9,33.4,29.71,WNW,296,21.0,21.0,87,0.00,,,0.02,Wunderground v.1.15,2013-03-18 22:41:00,
2013-03-18 16:47:00,36.9,33.4,29.72,West,273,18.0,21.0,87,0.00,,,0.02,Wunderground v.1.15,2013-03-18 22:47:00,
2013-03-18 16:52:00,36.8,33.3,29.72,West,273,16.0,19.0,87,0.00,,,0.02,Wunderground v.1.15,2013-03-18 22:52:00,
2013-03-18 16:58:00,36.9,32.8,29.72,WNW,286,18.0,19.0,85,0.00,,,0.02,Wunderground v.1.15,2013-03-18 22:58:00,
2013-03-18 17:03:00,36.7,32.3,29.72,WNW,294,20.0,25.0,84,0.00,,,0.02,Wunderground v.1.15,2013-03-18 23:03:00,
2013-03-18 17:08:00,36.2,31.8,29.72,WNW,289,22.0,27.0,84,0.00,,,0.02,Wunderground v.1.15,2013-03-18 23:08:00,
2013-03-18 17:14:00,35.9,31.8,29.73,WNW,284,22.0,27.0,85,0.00,,,0.02,Wunderground v.1.15,2013-03-18 23:14:00,
2013-03-18 17:20:00,35.5,29.9,29.73,WNW,289,24.0,35.0,80,0.00,,,0.02,Wunderground v.1.15,2013-03-18 23:20:00,
2013-03-18 17:25:00,34.7,29.2,29.73,WNW,293,28.0,35.0,80,0.00,,,0.02,Wunderground v.1.15,2013-03-18 23:25:00,
2013-03-18 17:31:00,34.1,28.6,29.74,WNW,290,30.0,38.0,80,0.00,,,0.02,Wunderground v.1.15,2013-03-18 23:31:00,
2013-03-18 17:37:00,33.7,28.5,29.75,West,281,30.0,38.0,81,0.00,,,0.02,Wunderground v.1.15,2013-03-18 23:37:00,
2013-03-18 17:43:00,33.3,28.1,29.75,WNW,282,26.0,28.0,81,0.00,,,0.02,Wunderground v.1.15,2013-03-18 23:43:00,
2013-03-18 17:49:00,33.0,27.8,29.76,WNW,288,27.0,33.0,81,0.00,,,0.02,Wunderground v.1.15,2013-03-18 23:49:00,
2013-03-18 17:54:00,32.5,27.0,29.77,WNW,292,30.0,34.0,80,0.00,,,0.02,Wunderground v.1.15,2013-03-18 23:54:00,
2013-03-18 17:59:00,31.7,25.6,29.77,WNW,293,32.0,34.0,78,0.00,,,0.02,Wunderground v.1.15,2013-03-18 23:59:00,
2013-03-18 18:05:00,31.3,25.8,29.77,West,272,32.0,36.0,80,0.00,,,0.02,Wunderground v.1.15,2013-03-19 00:05:00,
2013-03-18 18:10:00,31.4,25.9,29.78,WNW,297,30.0,30.0,80,0.00,,,0.02,Wunderground v.1.15,2013-03-19 00:10:00,
2013-03-18 18:17:00,31.2,25.4,29.79,WNW,284,30.0,35.0,79,0.00,,,0.02,Wunderground v.1.15,2013-03-19 00:17:00,
2013-03-18 18:22:00,31.0,25.9,29.79,WNW,291,29.0,34.0,81,0.00,,,0.02,Wunderground v.1.15,2013-03-19 00:22:00,
2013-03-18 18:28:00,30.8,25.7,29.79,WNW,292,28.0,35.0,81,0.00,,,0.02,Wunderground v.1.15,2013-03-19 00:28:00,
2013-03-18 18:33:00,30.6,25.5,29.80,WNW,290,27.0,31.0,81,0.00,,,0.02,Wunderground v.1.15,2013-03-19 00:33:00,
2013-03-18 18:39:00,30.3,25.5,29.80,WNW,289,24.0,36.0,82,0.00,,,0.02,Wunderground v.1.15,2013-03-19 00:39:00,
2013-03-18 18:44:00,30.0,24.9,29.81,WNW,289,25.0,30.0,81,0.00,,,0.02,Wunderground v.1.15,2013-03-19 00:44:00,
2013-03-18 18:50:00,29.8,24.7,29.81,WNW,295,26.0,26.0,81,0.00,,,0.02,Wunderground v.1.15,2013-03-19 00:50:00,
2013-03-18 18:56:00,29.6,24.8,29.82,WNW,294,23.0,27.0,82,0.00,,,0.02,Wunderground v.1.15,2013-03-19 00:56:00,
2013-03-18 19:01:00,29.4,24.3,29.82,WNW,286,23.0,31.0,81,0.00,,,0.02,Wunderground v.1.15,2013-03-19 01:01:00,
2013-03-18 19:07:00,29.3,24.2,29.82,WNW,292,24.0,31.0,81,0.00,,,0.02,Wunderground v.1.15,2013-03-19 01:07:00,
2013-03-18 19:12:00,29.3,23.6,29.82,West,271,23.0,24.0,79,0.00,,,0.02,Wunderground v.1.15,2013-03-19 01:12:00,
2013-03-18 19:17:00,29.2,23.5,29.82,WNW,287,24.0,31.0,79,0.00,,,0.02,Wunderground v.1.15,2013-03-19 01:17:00,
2013-03-18 19:22:00,29.1,23.7,29.82,West,277,25.0,28.0,80,0.00,,,0.02,Wunderground v.1.15,2013-03-19 01:22:00,
2013-03-18 19:28:00,28.8,23.1,29.82,WNW,290,25.0,33.0,79,0.00,,,0.02,Wunderground v.1.15,2013-03-19 01:28:00,
2013-03-18 19:34:00,28.5,22.8,29.83,WNW,289,28.0,34.0,79,0.00,,,0.02,Wunderground v.1.15,2013-03-19 01:34:00,
2013-03-18 19:40:00,28.3,22.9,29.83,West,271,29.0,29.0,80,0.00,,,0.02,Wunderground v.1.15,2013-03-19 01:40:00,
2013-03-18 19:46:00,28.1,21.8,29.83,West,280,26.0,33.0,77,0.00,,,0.02,Wunderground v.1.15,2013-03-19 01:46:00,
2013-03-18 19:51:00,28.0,22.0,29.84,West,271,25.0,29.0,78,0.00,,,0.02,Wunderground v.1.15,2013-03-19 01:51:00,
2013-03-18 19:57:00,27.9,22.5,29.84,West,281,23.0,29.0,80,0.00,,,0.02,Wunderground v.1.15,2013-03-19 01:57:00,
2013-03-18 20:03:00,27.7,22.3,29.84,WNW,286,20.0,31.0,80,0.00,,,0.02,Wunderground v.1.15,2013-03-19 02:03:00,
2013-03-18 20:08:00,27.6,22.8,29.85,West,274,22.0,31.0,82,0.00,,,0.02,Wunderground v.1.15,2013-03-19 02:08:00,
2013-03-18 20:14:00,27.5,22.4,29.85,WNW,283,22.0,27.0,81,0.00,,,0.02,Wunderground v.1.15,2013-03-19 02:14:00,
2013-03-18 20:19:00,27.3,21.6,29.85,WNW,284,25.0,33.0,79,0.00,,,0.02,Wunderground v.1.15,2013-03-19 02:19:00,
2013-03-18 20:25:00,26.9,21.0,29.85,WNW,291,28.0,38.0,78,0.00,,,0.02,Wunderground v.1.15,2013-03-19 02:25:00,
2013-03-18 20:31:00,26.4,20.2,29.86,NW,310,31.0,31.0,77,0.00,,,0.02,Wunderground v.1.15,2013-03-19 02:31:00,
2013-03-18 20:37:00,26.0,19.8,29.86,WNW,289,31.0,34.0,77,0.00,,,0.02,Wunderground v.1.15,2013-03-19 02:37:00,
2013-03-18 20:43:00,25.8,19.9,29.86,West,280,30.0,33.0,78,0.00,,,0.02,Wunderground v.1.15,2013-03-19 02:43:00,
2013-03-18 20:49:00,25.7,20.1,29.87,West,280,28.0,34.0,79,0.00,,,0.02,Wunderground v.1.15,2013-03-19 02:49:00,
2013-03-18 20:54:00,25.6,19.4,29.87,WNW,292,29.0,37.0,77,0.00,,,0.02,Wunderground v.1.15,2013-03-19 02:54:00,
2013-03-18 20:59:00,25.7,19.5,29.87,WNW,292,32.0,43.0,77,0.00,,,0.02,Wunderground v.1.15,2013-03-19 02:59:00,
2013-03-18 21:04:00,25.5,18.4,29.87,WNW,289,34.0,40.0,74,0.00,,,0.02,Wunderground v.1.15,2013-03-19 03:04:00,
2013-03-18 21:10:00,25.3,17.9,29.88,WNW,289,35.0,35.0,73,0.00,,,0.02,Wunderground v.1.15,2013-03-19 03:10:00,
2013-03-18 21:16:00,25.1,18.0,29.87,WNW,301,33.0,42.0,74,0.00,,,0.02,Wunderground v.1.15,2013-03-19 03:16:00,
2013-03-18 21:22:00,24.8,17.4,29.88,WNW,301,32.0,38.0,73,0.00,,,0.02,Wunderground v.1.15,2013-03-19 03:22:00,
2013-03-18 21:28:00,24.7,17.3,29.88,WNW,290,32.0,38.0,73,0.00,,,0.02,Wunderground v.1.15,2013-03-19 03:28:00,
2013-03-18 21:33:00,24.6,17.5,29.88,WNW,294,31.0,40.0,74,0.00,,,0.02,Wunderground v.1.15,2013-03-19 03:33:00,
2013-03-18 21:38:00,24.6,17.5,29.88,WNW,294,29.0,40.0,74,0.00,,,0.02,Wunderground v.1.15,2013-03-19 03:38:00,
2013-03-18 21:43:00,24.6,17.8,29.89,WNW,287,28.0,36.0,75,0.00,,,0.02,Wunderground v.1.15,2013-03-19 03:43:00,
2013-03-18 21:49:00,24.6,17.2,29.89,WNW,288,29.0,36.0,73,0.00,,,0.02,Wunderground v.1.15,2013-03-19 03:49:00,
2013-03-18 21:54:00,24.6,17.5,29.89,West,277,29.0,35.0,74,0.00,,,0.02,Wunderground v.1.15,2013-03-19 03:54:00,
2013-03-18 22:00:00,24.7,18.2,29.90,West,277,28.0,28.0,76,0.00,,,0.02,Wunderground v.1.15,2013-03-19 04:00:00,
2013-03-18 22:01:00,24.7,18.2,29.90,WNW,295,27.0,28.0,76,0.00,,,0.02,Wunderground v.1.15,2013-03-19 04:01:00,
2013-03-18 22:03:00,24.7,17.6,29.90,WNW,287,27.0,30.0,74,0.00,,,0.02,Wunderground v.1.15,2013-03-19 04:03:00,
2013-03-18 22:04:00,24.7,17.6,29.90,West,279,27.0,30.0,74,0.00,,,0.02,Wunderground v.1.15,2013-03-19 04:04:00,
2013-03-18 22:10:00,24.7,18.2,29.90,WNW,292,24.0,31.0,76,0.00,,,0.02,Wunderground v.1.15,2013-03-19 04:10:00,
2013-03-18 22:16:00,24.8,18.0,29.90,WNW,294,25.0,35.0,75,0.00,,,0.02,Wunderground v.1.15,2013-03-19 04:16:00,
2013-03-18 22:21:00,24.9,17.8,29.90,WNW,291,28.0,31.0,74,0.00,,,0.02,Wunderground v.1.15,2013-03-19 04:21:00,
2013-03-18 22:27:00,24.8,17.7,29.90,West,274,28.0,32.0,74,0.00,,,0.02,Wunderground v.1.15,2013-03-19 04:27:00,
2013-03-18 22:33:00,24.8,17.7,29.90,WNW,284,29.0,33.0,74,0.00,,,0.02,Wunderground v.1.15,2013-03-19 04:33:00,
2013-03-18 22:38:00,24.8,18.0,29.90,WNW,286,28.0,33.0,75,0.00,,,0.02,Wunderground v.1.15,2013-03-19 04:38:00,
2013-03-18 22:44:00,24.9,18.1,29.90,WNW,288,26.0,31.0,75,0.00,,,0.02,Wunderground v.1.15,2013-03-19 04:44:00,
2013-03-18 22:49:00,24.9,18.1,29.90,WNW,286,25.0,31.0,75,0.00,,,0.02,Wunderground v.1.15,2013-03-19 04:49:00,
2013-03-18 22:55:00,24.8,18.0,29.90,WNW,284,25.0,32.0,75,0.00,,,0.02,Wunderground v.1.15,2013-03-19 04:55:00,
2013-03-18 23:00:00,24.9,18.1,29.90,WNW,284,25.0,29.0,75,0.00,,,0.00,Wunderground v.1.15,2013-03-19 05:00:00,
2013-03-18 23:06:00,25.0,17.9,29.90,West,272,25.0,32.0,74,0.00,,,0.00,Wunderground v.1.15,2013-03-19 05:06:00,
2013-03-18 23:11:00,25.0,18.2,29.90,West,264,26.0,31.0,75,0.00,,,0.00,Wunderground v.1.15,2013-03-19 05:11:00,
2013-03-18 23:17:00,25.0,18.2,29.90,West,272,24.0,31.0,75,0.00,,,0.00,Wunderground v.1.15,2013-03-19 05:17:00,
2013-03-18 23:23:00,25.0,17.9,29.90,WNW,282,26.0,39.0,74,0.00,,,0.00,Wunderground v.1.15,2013-03-19 05:23:00,
2013-03-18 23:29:00,24.7,17.0,29.90,WNW,288,28.0,39.0,72,0.00,,,0.00,Wunderground v.1.15,2013-03-19 05:29:00,
2013-03-18 23:35:00,24.6,17.2,29.90,West,281,28.0,33.0,73,0.00,,,0.00,Wunderground v.1.15,2013-03-19 05:35:00,
2013-03-18 23:42:00,24.5,18.0,29.90,WNW,292,27.0,27.0,76,0.00,,,0.00,Wunderground v.1.15,2013-03-19 05:42:00,
2013-03-18 23:47:00,24.4,17.9,29.89,WNW,283,25.0,31.0,76,0.00,,,0.00,Wunderground v.1.15,2013-03-19 05:47:00,
2013-03-18 23:52:00,24.2,17.4,29.89,WNW,296,23.0,32.0,75,0.00,,,0.00,Wunderground v.1.15,2013-03-19 05:52:00,
2013-03-18 23:58:00,24.2,17.7,29.89,West,277,22.0,32.0,76,0.00,,,0.00,Wunderground v.1.15,2013-03-19 05:58:00,